User: anonymous
Location: Hale Hill Observatory
(39.3806°N, 86.8431°W)
Time: 12:25:13
(UTC-04:00)
Language:

Cosmos 990 Rocket - Orbit

View from above orbital plane
View from above orbital plane
View from above satellite
View from above satellite

Ground track
Ground track

The orbit data is extracted from the following two-line orbital elements,

1 10677U 78019B   14208.81358329  .00000050  00000-0  24391-4 0  4623
2 10677 074.0378 090.9179 0014463 062.9287 297.3342 14.39658459910597
Epoch (UTC): 27 July 2014 19:31:33
Eccentricity: 0.0014463
inclination: 74.0378°
perigee height: 749 km
apogee height: 770 km
right ascension of ascending node: 90.9179°
argument of perigee: 62.9287°
revolutions per day: 14.39658459
mean anomaly at epoch: 297.3342°
orbit number at epoch: 91059

The dashed part of the orbit path shows where the satellite is in the earth's shadow,  

DLR